[Iaude] MPEC F35: 2022 FR [a=1.25,e=0.26,i=21.6,H=24.7]

mpec at marsden.cfa.harvard.edu mpec at marsden.cfa.harvard.edu
Thu Mar 24 18:27:25 EDT 2022


M.P.E.C. 2022-F35                                Issued 2022 March 24, 22:26 UT

     The Minor Planet Electronic Circulars contain information on unusual
         minor planets and routine data on comets.  They are published
    on behalf of Division F of the International Astronomical Union by the
          Minor Planet Center, Smithsonian Astrophysical Observatory,
                          Cambridge, MA 02138, U.S.A.

             Prepared using the Tamkin Foundation Computer Network

                              MPC at CFA.HARVARD.EDU
            URL https://www.minorplanetcenter.net/    ISSN 1523-6714

                                    2022 FR                                     


Observations:
     K22F00R* C2022 03 23.22133611 28 23.02 +06 21 29.8          20.47GVEF035G96
     K22F00R  C2022 03 23.22658811 28 19.84 +06 20 43.4          20.78GVEF035G96
     K22F00R  C2022 03 23.23183211 28 16.69 +06 19 57.3          21.07GVEF035G96
     K22F00R  C2022 03 23.23708611 28 13.47 +06 19 11.0          20.45GVEF035G96
     K22F00R KC2022 03 23.32311311 27 21.06 +06 06 26.2          20.16GVEF035I52
     K22F00R KC2022 03 23.32423411 27 20.42 +06 06 16.1          20.72GVEF035I52
     K22F00R KC2022 03 23.32535511 27 19.73 +06 06 06.3          21.35GVEF035I52
     K22F00R KC2022 03 23.95657 11 21 06.54 +04 29 43.5          20.5 GVEF035204
     K22F00R KC2022 03 23.97611 11 20 54.24 +04 26 40.8                VEF035204
     K22F00R KC2022 03 24.03923011 20 15.10 +04 16 49.6          20.4 GXEF035I93
     K22F00R KC2022 03 24.04336211 20 12.49 +04 16 11.0          20.4 GXEF035I93
     K22F00R KC2022 03 24.04738311 20 09.98 +04 15 32.0          20.3 GXEF035I93
     K22F00R |C2022 03 24.13046 11 19 22.24 +04 04 09.1          21.0 VuEF035807
     K22F00R |C2022 03 24.13683 11 19 18.18 +04 03 09.2          21.1 VuEF035807
     K22F00R |C2022 03 24.14314 11 19 14.16 +04 02 09.8          20.6 VuEF035807
     K22F00R KC2022 03 24.16292 11 19 04.17 +03 57 31.0          20.6 GXEF035858
     K22F00R KC2022 03 24.17259 11 18 58.03 +03 55 59.6          20.3 GXEF035858
     K22F00R KC2022 03 24.18193411 18 52.46 +03 54 34.2          20.96GVEF035I52
     K22F00R KC2022 03 24.18216 11 18 51.93 +03 54 28.7          20.2 GXEF035858
     K22F00R KC2022 03 24.18281111 18 51.93 +03 54 25.6          20.74GVEF035I52
     K22F00R 1C2022 03 24.90552 11 11 18.71 +01 56 42.1          20.5 VXEF035033
     K22F00R 1C2022 03 24.90661 11 11 17.98 +01 56 30.9          20.4 VXEF035033
     K22F00R 1C2022 03 24.90771 11 11 17.27 +01 56 20.1          20.6 VXEF035033
     K22F00R 1C2022 03 24.90890 11 11 16.48 +01 56 08.1          20.9 VXEF035033

Observer details:
033 Karl Schwarzschild Observatory, Tautenburg.  Observers S. Melnikov, C.
    Hoegner, U. Laux, F. Ludwig, B. Stecklum.  Measurer B. Stecklum.  1.34-m
    f/3 Schmidt + CCD.
204 Schiaparelli Observatory.  Observer L. Buzzi.  0.84-m f/3.5 reflector +
    CCD.
807 Cerro Tololo Observatory, La Serena.  Observers T. Linder, R. Holmes, L.
    Horn.  0.61-m f/6.5 astrograph + CCD.
858 Tebbutt Observatory, Edgewood.  Observer F. B. Zoltowski.
G96 Mt. Lemmon Survey.  Observers A. Serrano, G. J. Leonard.  Measurers E. J.
    Christensen, G. A. Farneth, J. B. Fazekas, D. C. Fuls, A. R. Gibbs, A. D.
    Grauer, H. Groeller, J. K. Hogan, R. A. Kowalski, S. M. Larson, G. J.
    Leonard, D. Rankin, R. L. Seaman, A. Serrano, F. C. Shelly, K. W.
    Wierzchos.  1.5-m reflector + 10K CCD.
I52 Steward Observatory, Mt. Lemmon Station.  Observer K. W. Wierzchos.
    Measurers E. J. Christensen, G. A. Farneth, J. B. Fazekas, D. C. Fuls, A.
    R. Gibbs, A. D. Grauer, H. Groeller, J. K. Hogan, R. A. Kowalski, S. M.
    Larson, G. J. Leonard, D. Rankin, R. L. Seaman, A. Serrano, F. C. Shelly,
    K. W. Wierzchos.
I93 St Pardon de Conques.  Observer F. Losse.  0.40-m f/3.7 reflector + CCD.

Orbital elements:
2022 FR                                                  Earth MOID = 0.0839 AU
Epoch 2022 Jan. 21.0 TT = JDT 2459600.5                 Veres                   
M 267.33191              (2000.0)            P               Q                  
n   0.70363369     Peri.  256.81225     -0.20025909     +0.97967792             
a   1.2519057      Node     1.75820     -0.69411755     -0.13373502             
e   0.2633467      Incl.   21.59169     -0.69144568     -0.14948620             
P   1.40           H   24.79          G   0.15           U   8                  
Residuals in seconds of arc
220323 G96  0.1-  0.0     220323 204  0.2+  0.1-    220324 858  0.2+  0.1+
220323 G96  0.1-  0.1-    220324 I93  0.6+  0.2+    220324 I52  0.1-  0.3+
220323 G96  0.4+  0.2+    220324 I93  0.4+  0.5+    220324 858  0.0   0.0
220323 G96  0.2-  0.3+    220324 I93  0.7+  0.6-    220324 I52  0.4+  0.0
220323 I52  0.3-  0.2-    220324 807 (1.2-  0.8-)   220324 033  0.2+  0.0
220323 I52  0.3+  0.3-    220324 807 (0.9-  0.4-)   220324 033  0.0   0.3-
220323 I52  0.2+  0.1-    220324 807  0.6-  0.0     220324 033  0.2+  0.1-
220323 204  0.5+  0.3-    220324 858  0.1+  0.1-    220324 033  0.2+  0.3-

Ephemeris:
2022 FR                  a,e,i = 1.25, 0.26, 22                  q = 0.9222
Date    TT    R. A. (2000) Decl.     Delta      r    Elong.  Phase     V
2022 02 22    13 22 12.6 +30 10 47   0.3120  1.2243   133.3    36.0    24.2
...
2022 03 09    12 55 22.8 +25 29 22   0.1931  1.1616   148.4    26.6    22.7
...
2022 03 17    12 17 34.2 +18 03 50   0.1395  1.1282   161.7    16.1    21.6
...
2022 03 23    11 30 28.8 +06 54 33   0.1090  1.1033   168.0    10.8    20.9
2022 03 24    11 20 41.0 +04 24 00   0.1052  1.0992   166.2    12.5    20.8
2022 03 25    11 10 18.4 +01 42 10   0.1019  1.0952   163.6    14.9    20.9
...
2022 03 31    09 57 17.2 -16 55 51   0.09357 1.0710   138.8    37.9    21.3
...
2022 04 08    08 11 07.4 -36 38 01   0.1129  1.0402   107.3    66.8    22.5
...
2022 04 23    05 57 56.0 -47 24 59   0.1895  0.9886    79.5    89.6    24.3

M. P. C. Staff               (C) Copyright 2022 MPC           M.P.E.C. 2022-F35




More information about the Iaude mailing list